Location: Cheyres
(46.8153°N, 6.7877°E)
Time: 06:13:38
(UTC+00:00)

AO-109 - Pass Details

Date: 11 July 2022
Orbit: 469 x 506 km, 60.7° (Epoch: 14 August)

Event Time Altitude Azimuth Distance (km) Brightness Sun altitude
Exits shadow 01:46:38 16° 265° (W) 1,342 ? -15.2°
Maximum altitude 01:49:09 33° 324° (NW) 828 ? -15.0°
Drops below altitude 10° 01:52:35 10° 31° (NNE) 1,680 ? -14.7°
Sets 01:54:55 0° 41° (NE) 2,572 ? -14.5°
